Regional Weather Roundup
Issued by NWS

Home | Current Version | Previous Version | Text Only | Print | Product List | Glossary On
Versions: 1 2 3 4 5 6 7 8 9 10 11 12 13 14 15 16 17 18 19 20 21 22 23 24 25 26 27 28 29 30 31 32 33 34 35 36 37 38 39 40 41 42 43 44 45 46 47 48 49 50
000
ASUS43 KMPX 220501
RWRMN
WEATHER ROUNDUP FOR MINNESOTA
NATIONAL WEATHER SERVICE TWIN CITIES/CHANHASSEN MN
1200 AM CDT TUE AUG 22 2017


NOTE: "FAIR" INDICATES FEW OR NO CLOUDS BELOW 12,000 FEET WITH NO
SIGNIFICANT WEATHER AND/OR OBSTRUCTIONS TO VISIBILITY. N/A MEANS
CURRENT SKY AND/OR WEATHER CONDITIONS ARE NOT AVAILABLE.

MNZ060>063-068>070-220600-
   Twin Cities Metro

CITY           SKY/WX    TMP DP  RH WIND       PRES   REMARKS
TWIN CITIES    CLOUDY    68  63  84 W10       29.87S
ST PAUL        CLOUDY    69  65  86 W12       29.86S
CRYSTAL        CLOUDY    67  61  81 W9        29.85S
BLAINE         CLOUDY    68  66  94 W8        29.86S
LAKEVILLE      CLOUDY    64  64 100 W7        29.88S
EDEN PRAIRIE   PTCLDY    68  64  87 W8        29.87S
SOUTH ST PAUL  PTCLDY    69  65  88 W8        29.86S
LAKE ELMO      CLOUDY    68  64  88 W7        29.87S
$$
MNZ001>005-007-008-013>017-022>024-027-028-220600-
   Northwest Minnesota

CITY           SKY/WX    TMP DP  RH WIND       PRES   REMARKS
BEMIDJI        CLEAR     55  54  94 NW10      29.93R
HALLOCK        CLEAR     50  48  93 W5        29.97S
ROSEAU         CLEAR     54  48  82 W3        29.95S
WARROAD        CLEAR     54  48  82 W5        29.94F
CROOKSTON      CLEAR     54  52  94 N7        29.99S
FOSSTON        CLEAR     54  52  94 NW8       29.98R
DETROIT LAKES  CLEAR     57  54  88 NW10      29.99R
MOORHEAD       CLEAR     57  54  88 NW7       30.00R
PARK RAPIDS    PTCLDY    57  54  89 NW7       29.94R
MAHNOMEN       FAIR      55  53  92 NW9       29.97R
$$
MNZ006-009>011-018-025>026-220600-
   North Central Minnesota

CITY           SKY/WX    TMP DP  RH WIND       PRES   REMARKS
BAUDETTE       CLEAR     56  52  86 NW8       29.91R
FLAG ISLAND    PTCLDY    57  54  88 W7        29.91R FOG
INTL FALLS     MOCLDY    54  52  93 CALM      29.88S
WASKISH        PTCLDY    57  57 100 NW9       29.92R
BIG FORK       CLOUDY    52  52 100 CALM      29.90S FOG
LONGVILLE      PTCLDY    55  54  94 CALM      29.90S
GRAND RAPIDS   PTCLDY    55  53  93 NW3       29.91R
CRANE LAKE     CLOUDY    52  52 100 CALM      29.89R FOG
ORR            CLOUDY    54  52  94 CALM      29.85S
COOK           CLOUDY    54  54 100 CALM      29.88S
WALKER         FAIR      56  55  98 NW6       29.92R
$$
MNZ012-019>021-037-220600-
   Northeast Minnesota

CITY           SKY/WX    TMP DP  RH WIND       PRES   REMARKS
DULUTH         CLOUDY    57  56  96 N3        29.85R
ELY            CLOUDY    55  54  94 NW3       29.86R
HIBBING        CLOUDY    54  54 100 NW5       29.87S
EVELETH        CLOUDY    58  53  84 N3        29.87S
DULUTH HARBOR  DRIZZLE   59  57  94 N12       29.84S
TWO HARBORS    CLOUDY    59  54  82 CALM      29.82S
GRAND MARAIS     N/A     59  58  96 CALM      29.81F
G MARAIS ARPRT CLOUDY    54  50  87 N3        29.84F
$$
MNZ029>031-032-039>041-046>048-054>057-064-220600-
   West Central Minnesota

CITY           SKY/WX    TMP DP  RH WIND       PRES   REMARKS
FERGUS FALLS   CLEAR     61  54  77 N14       29.98R
WHEATON        CLEAR     63  52  67 NW14      30.02R
MORRIS         CLEAR     63  57  82 NW12      29.97R
ALEXANDRIA     CLEAR     62  58  86 NW8       29.96R
ELBOW LAKE     FAIR      62  56  82 W15       29.98R
WADENA         MOCLDY    61  61 100 NW6       29.94R
GLENWOOD       CLEAR     63  59  88 NW9       29.96R
APPLETON       CLEAR     61  55  82 W7        29.97R
BENSON         CLEAR     61  57  88 N8        29.98R
ORTONVILLE     CLEAR     64  55  72 MISG      29.99R
MADISON        CLEAR     64  64 100 NW9       29.99R
WILLMAR        FAIR      64  61  88 NW9       29.95S
$$
MNZ033>034-036-042>043-049>051-058-059-220600-
   Central Minnesota

CITY           SKY/WX    TMP DP  RH WIND       PRES   REMARKS
ST CLOUD       CLEAR     65  62  90 NW14      29.87S
SAUK CENTRE    FAIR      63  58  84 NW10      29.93S
PAYNESVILLE    CLEAR     62  60  92 W9        29.93S
AITKIN         CLOUDY    61  57  88 CALM      29.88R
PINE RIVER     PTCLDY    57  55  94 CALM      29.94S
BRAINERD       PTCLDY    61  60  97 NW6       29.90R
STAPLES        PTCLDY    59  57  94 NW8       29.93R
LONG PRAIRIE   FAIR      61  57  88 W7        29.93R
LITTLE FALLS   CLEAR     63  59  88 NW8       29.91R
LITCHFIELD     CLEAR     66  63  88 W9        29.92S
BUFFALO        CLEAR     65  60  83 W7        29.89S
MAPLE LAKE     CLEAR     67  62  85 W10G17    29.89S
HUTCHINSON     CLEAR     65  63  92 W9        29.92S
$$
MNZ037-044-045-052-053-220600-
   East Central Minnesota

CITY           SKY/WX    TMP DP  RH WIND       PRES   REMARKS
PRINCETON      CLEAR     66  63  88 W10       29.86S
MORA           PTCLDY    64  63  94 NW8       29.85S
CAMBRIDGE      CLEAR     68  63  83 W7        29.86R
RUSH CITY      CLOUDY    66  63  89 W6        29.85R
MOOSE LAKE     CLOUDY    63  59  88 N8        29.83R
HINCKLEY       FAIR      66  64  94 NW5       29.84R
CLOQUET        CLOUDY    59  55  88 N8        29.86R
MCGREGOR       MOCLDY    61  59  94 NW5       29.88R
$$
MNZ071>073-080-081-089-090-097-098-220600-
   Southwest Minnesota

CITY           SKY/WX    TMP DP  RH WIND       PRES   REMARKS
MONTEVIDEO     CLEAR     63  61  94 N9        29.97R
GRANITE FALLS  CLEAR     64  61  91 W9        29.98R
CANBY          MOCLDY    65  59  81 CALM      30.01R
MARSHALL       CLEAR     63  59  87 NW10      29.98R
REDWOOD FALLS  CLEAR     66  61  84 NW14      29.93S
OLIVIA         CLEAR     63  61  94 NW9       29.93S
PIPESTONE      CLEAR     64  61  88 NW5       30.01S
WINDOM         PTCLDY    64  63  94 W10       29.95S
WORTHINGTON    CLOUDY    63  61  93 W10       29.97F
JACKSON        MOCLDY    63  61  94 CALM      29.95F
TRACY          CLEAR     65  62  89 W7        29.98S
SLAYTON        CLOUDY    64  59  83 W12       30.00R
$$
MNZ065>067-074>077-082>085-091>093-220600-
   South Central Minnesota

CITY           SKY/WX    TMP DP  RH WIND       PRES   REMARKS
MANKATO        CLOUDY    66  63  90 W12       29.91F
NEW ULM        CLOUDY    64  63  94 W7        29.92S
ST JAMES         N/A     64  63  94 W7        29.93F
FAIRMONT       CLOUDY    65  63  93 W9        29.93F
GLENCOE        CLOUDY    66  65  97 W12       29.89F
FARIBAULT      CLOUDY    66  64  94 W10       29.90F
OWATONNA       CLOUDY    64  63  94 W5        29.91S
WASECA         CLOUDY    63  61  94 W5        29.92S
ALBERT LEA     CLOUDY    66  64  94 CALM      29.92S
$$
MNZ078>079-086>088-094>096-220600-
   Southeast Minnesota

CITY           SKY/WX    TMP DP  RH WIND       PRES   REMARKS
ROCHESTER      CLOUDY    63  63 100 SW9       29.93S
RED WING       CLOUDY    66  63  88 W7        29.86S
STANTON        MOCLDY    67  63  86 W7        29.88S
DODGE CENTER   CLOUDY    63  61  94 SW7       29.92S
WINONA         CLOUDY    68  64  88 SW5       29.90R
AUSTIN         CLOUDY    63  61  94 CALM      29.93S
PRESTON        CLOUDY    64  62  94 SW5       29.94S
$$
ABBREVIATIONS USED IN REMARKS
   TC - TEMPERATURES IN CELSIUS
  WCI - WIND CHILL INDEX
   HX - HEAT INDEX
  VSB - VISIBILITY
$$




USA.gov is the U.S. government's official web portal to all federal, state and local government web resources and services.